Location: San Antonio de Areco
(34.2500°S, 59.4670°W)
Time: 00:05:32
(UTC-03:00)

ISS - Visible Passes

Search period start: 29 August 2015 00:00
Search period end: 08 September 2015 00:00
Orbit: 399 x 401 km, 51.6° (Epoch: 28 August)

Date Brightness Start Highest point End Pass type
(mag) Time Alt. Az. Time Alt. Az. Time Alt. Az.
29 Aug -2.4 06:11:04 30° WNW 06:11:23 30° NW 06:14:18 10° NNE visible
30 Aug -0.6 05:20:29 15° NE 05:20:29 15° NE 05:21:10 10° NE visible
01 Sep -2.9 20:03:34 10° NNW 20:06:22 47° NNE 20:06:22 47° NNE visible
02 Sep -1.9 19:10:37 10° N 19:13:12 22° NE 19:15:43 11° ESE visible
02 Sep -0.8 20:46:36 10° W 20:48:20 22° WSW 20:48:20 22° WSW visible
03 Sep -2.8 19:52:30 10° WNW 19:55:44 57° SW 19:57:32 23° SSE visible
04 Sep -0.6 20:36:43 10° WSW 20:38:43 15° SSW 20:39:10 14° SSW visible
05 Sep -1.2 19:41:58 10° W 19:44:45 25° SW 19:47:34 10° SSE visible
07 Sep -0.5 19:32:03 10° WSW 19:33:50 14° SSW 19:35:34 10° S visible
